Location: Daybis Observatory
(33.4273°N, 88.8061°W)
Time: 03:13:08
(UTC-05:00)

Daily predictions for brighter satellites

Satellite Brightness Start Highest point End
(mag) Time Altitude Azimuth Time Altitude Azimuth Time Altitude Azimuth
ATLAS 3B R/B 4.4 01:56:06 30° N 01:56:06 30° N 02:00:09 10° NNE
CZ-4C R/B 4.4 02:33:52 20° N 02:33:52 20° N 02:35:51 10° NNE
Cosmos 2369 Rocket 4.4 02:37:01 10° NNE 02:41:04 20° ENE 02:41:29 20° ENE
USA 234 4.2 02:43:43 10° NE 02:47:57 43° ENE 02:47:57 43° ENE
SL-16 R/B 4.0 02:52:08 31° ENE 02:52:43 31° ENE 02:58:02 10° N
Resurs 1-4 Rocket 4.0 02:55:53 10° NE 02:58:42 25° ENE 02:58:42 25° ENE
CENTAUR R/B 3.7 03:19:17 33° ESE 03:19:17 33° ESE 03:24:34 10° NE
NOSS 3-2 (C) 4.3 03:20:58 43° N 03:20:58 43° N 03:25:36 10° NNE
BREEZE M DEB (TANK) 4.5 03:18:33 76° SSW 03:19:29 85° SE 03:47:51 10° NE
ATLAS 5 CENTAUR R/B 3.2 03:33:28 36° NE 03:33:28 36° NE 03:36:33 10° NE
Cosmos 839 Rocket 4.1 03:40:18 10° NNW 03:48:07 88° ENE 03:49:55 53° SSE
Okean O Rocket 2.6 03:59:36 10° NNE 04:03:52 43° E 04:04:08 42° ESE
CZ-2D R/B 4.3 03:59:47 10° NNE 04:03:05 49° NNE 04:03:05 49° NNE
CZ-2D R/B 2.7 04:01:15 10° N 04:05:16 46° NNW 04:05:16 46° NNW
Atlas Centaur 2 3.6 04:07:31 18° SE 04:07:31 18° SE 04:09:52 10° ESE
Cosmos 1302 Rocket 4.0 04:02:17 10° NNW 04:07:33 81° ENE 04:07:50 77° ESE
Cosmos 2315 Rocket 3.9 04:07:44 64° WNW 04:07:44 64° WNW 04:13:52 10° N
MOS 1-B 4.2 04:04:01 10° N 04:09:49 77° WNW 04:10:06 74° WSW
Cosmos 1943 4.3 04:11:14 30° NW 04:11:14 30° NW 04:15:16 10° N
COSMOS 2406 3.8 04:08:58 40° SSE 04:10:38 54° ESE 04:16:13 10° NNE
Cosmos 389 Rocket 4.1 04:17:29 30° NNE 04:17:29 30° NNE 04:19:23 10° NNE
ARIANE 5 R/B 3.9 04:17:31 10° NNW 04:20:44 26° NW 04:20:44 26° NW
Cosmos 1455 4.1 04:26:12 22° NNW 04:26:12 22° NNW 04:27:49 10° N
Cosmos 2369 Rocket 3.1 04:19:56 10° NNW 04:23:07 32° NW 04:23:07 32° NW
SeaSat 1 2.9 04:21:12 10° SE 04:26:02 60° ENE 04:30:53 10° NNW
CZ-4B R/B 3.3 04:25:11 10° NNE 04:30:28 69° ESE 04:33:13 29° S
USA 234 4.4 04:27:18 10° NNE 04:32:50 31° NW 04:35:18 24° WNW
SL-16 R/B 3.2 04:37:14 32° WNW 04:37:14 32° WNW 04:41:44 10° NW
PSLV R/B 3.8 04:32:56 10° N 04:36:16 62° NNW 04:36:16 62° NNW
Cosmos 1862 Rocket 4.3 04:40:57 36° NW 04:40:57 36° NW 04:44:19 10° N
Resurs 1-4 Rocket 3.3 04:36:00 10° NNW 04:39:46 25° WNW 04:39:46 25° WNW
CZ-2C R/B 3.6 04:37:47 12° SSE 04:41:55 85° ENE 04:46:22 10° N
GPS 2-05 Rocket1 3.8 04:43:30 37° SE 04:43:30 37° SE 04:46:15 10° E
Cosmos 1174 4.4 04:44:16 42° SW 04:46:08 70° WNW 04:50:52 10° NNE
Cosmos 1943 Rocket 2.0 04:42:32 10° NNW 04:48:12 79° WSW 04:53:47 10° SSE
Cosmos 1190 Rocket 4.3 04:45:57 19° S 04:49:36 66° ESE 04:54:45 10° NNE
Thor Agena Rocket 3.9 04:46:46 10° SSE 04:51:49 65° ENE 04:56:57 10° N
Okean 1-7 3.6 04:49:17 11° S 04:53:17 57° E 04:57:31 10° NNE
ADEOS II 3.0 04:49:48 10° NNE 04:54:53 48° E 04:59:56 10° S
Nadezhda 1 Rocket 3.9 04:49:30 14° S 04:54:56 82° W 05:01:18 10° N
Okean 2 Rocket 4.3 04:52:02 10° N 04:56:21 44° E 05:00:39 10° SSE
Cosmos 1408 2.5 04:53:28 10° N 04:57:13 88° W 05:00:54 10° S
SL-27 R/B 3.7 05:00:36 28° WNW 05:00:36 28° WNW 05:03:26 10° N
Aureole 3 Rocket 4.0 04:53:09 10° S 05:00:58 88° W 05:06:28 10° N
USA 32 3.9 04:57:28 14° S 05:02:02 76° W 05:07:17 10° N
Cosmos 1992 Rocket 4.1 04:57:42 10° NNW 05:02:56 78° ENE 05:08:10 10° SSE
PAYLOAD B 4.3 04:57:45 10° N 05:03:08 55° WNW 05:06:30 22° SW
MOZ.5/SAFIR/RUBIN 5/SL-8 3.9 05:01:11 16° S 05:04:36 47° W 05:09:05 10° NNW
Centaur D-1A AC-31 2.3 04:58:25 22° W 05:04:37 53° S 05:08:25 10° ESE
Cosmos 1825 2.0 05:01:13 10° NNW 05:04:58 67° W 05:08:37 11° S
ADEOS Rocket 3.7 05:00:57 10° NNE 05:08:47 82° ESE 05:16:26 10° S
CENTAUR R/B 3.3 05:06:29 24° W 05:09:22 36° NW 05:15:31 10° NNE
ATLAS 5 CENTAUR R/B 3.8 05:15:02 12° WNW 05:16:48 14° NW 05:19:36 10° N
BREEZE-M DEB (TANK) 4.4 05:13:59 10° NW 05:18:29 89° NNE 05:33:15 10° SE
Cosmos 1782 Rocket 3.4 05:14:12 10° N 05:18:32 77° W 05:22:51 10° S
AVUM R/B 3.1 05:17:06 22° SSW 05:18:59 89° ESE 05:22:17 10° NNE
Cosmos 1862 3.7 05:15:30 10° NNW 05:19:13 38° W 05:22:49 10° SSW
Cosmos 1656 Rocket 3.6 05:14:01 10° NNW 05:19:28 87° ENE 05:24:52 10° SSE
OAO 3 Copernicus 4.3 05:17:11 19° W 05:20:43 62° SSW 05:25:42 10° ESE
Cosmos 2074 Rocket 4.4 05:18:07 10° NNW 05:23:51 40° W 05:29:35 10° SSW
Meteor 1-26 Rocket 4.3 05:19:51 10° SSW 05:25:36 67° W 05:31:28 10° N
Centaur D-1AR AC-36 3.9 05:20:42 14° SW 05:25:47 22° S 05:29:07 10° SE
Cosmos 2154 Rocket 4.0 05:20:24 10° N 05:26:44 85° W 05:33:06 10° S
Cosmos 676 Rocket 4.0 05:22:05 10° SSW 05:27:14 89° ESE 05:32:28 10° NNE
Cosmos 2184 Rocket 4.5 05:22:07 10° NNW 05:27:58 40° W 05:33:46 10° SSW
Feng Yun 1-1 Rocket 4.1 05:24:55 10° N 05:30:19 77° WNW 05:35:44 10° SSW
CZ-4B R/B 4.2 05:31:33 10° NNW 05:34:14 19° WNW 05:35:40 16° W
Meteor 1-14 Rocket 4.3 05:33:02 10° N 05:38:54 83° W 05:44:51 10° S
Okean O Rocket 3.5 05:37:25 10° NW 05:39:50 14° WNW 05:41:36 12° W
Okean-O 3.1 05:41:15 10° N 05:45:23 40° WNW 05:49:31 10° SW
Cosmos 407 Rocket 4.0 05:40:56 10° SW 05:45:50 42° WNW 05:50:49 10° N
Cosmos 2341 Rocket 4.0 05:41:44 10° N 05:48:01 74° W 05:54:20 10° S
Atlas Centaur 2 2.3 05:50:13 10° WSW 05:54:40 53° SSE 06:00:22 10° E
Cosmos 1782 2.9 05:52:44 10° S 05:56:45 86° E 06:00:48 10° N
SL-8 Rocket 4.3 05:50:45 10° N 05:56:58 76° E 06:03:12 10° S
Meteor 1-10 Rocket 4.4 05:53:56 10° S 05:59:48 87° E 06:05:36 10° N
SeaSat 1 4.0 06:01:21 10° SW 06:03:48 14° WSW 06:06:16 10° WNW
